Location: Blanot
(47.1713°N, 4.2340°E)
Time: 04:34:25
(UTC+00:00)

SeaSat 1 - Pass Details

Date: 14 July 2020
Orbit: 744 x 747 km, 108.0° (Epoch: 06 August)

Event Time Altitude Azimuth Distance (km) Brightness Sun altitude
Rises 00:36:47 0° 41° (NE) 3,201 6.8 -20.4°
Reaches altitude 10° 00:39:37 10° 57° (ENE) 2,272 5.5 -20.3°
Maximum altitude 00:43:17 21° 106° (ESE) 1,649 4.2 -20.1°
Enters shadow 00:45:01 18° 133° (SE) 1,801 4.1 -20.0°
